This is the latest recevied weather packets stored in our database for station/object NY3Q. If no packets are shown the sender has not sent any weather packets the latest 10 day(s).
| Time | Temp. | Humidity | Pressure | Rain* | Wind** | Luminosity | Snow |
|---|---|---|---|---|---|---|---|
| 1777992923 | 27.22° C | 49% | 1017.6 hPa | 0 mm | - | 493 W/m² | - |
| 1777992622 | 26.67° C | 49% | 1017.9 hPa | 0 mm | - | 483 W/m² | - |
| 1777992319 | 26.67° C | 50% | 1017.7 hPa | 0 mm | - | 469 W/m² | - |
| 1777992016 | 26.67° C | 51% | 1017.8 hPa | 0 mm | - | 459 W/m² | - |
| 1777991714 | 26.67° C | 53% | 1017.7 hPa | 0 mm | - | 450 W/m² | - |
| 1777991411 | 26.67° C | 50% | 1017.5 hPa | 0 mm | - | 438 W/m² | - |
| 1777991108 | 27.22° C | 50% | 1017.5 hPa | 0 mm | - | 425 W/m² | - |
| 1777990805 | 27.22° C | 53% | 1017.6 hPa | 0 mm | - | 414 W/m² | - |
| 1777990503 | 26.67° C | 52% | 1017.6 hPa | 0 mm | - | 401 W/m² | - |
| 1777989896 | 26.67° C | 52% | 1017.5 hPa | 0 mm | - | 360 W/m² | - |
| 1777989592 | 26.11° C | 53% | 1017.6 hPa | 0 mm | - | 330 W/m² | - |
| 1777989289 | 26.11° C | 54% | 1017.6 hPa | 0 mm | - | 353 W/m² | - |
| 1777988985 | 26.11° C | 54% | 1017.3 hPa | 0 mm | - | 333 W/m² | - |
| 1777988682 | 25.56° C | 57% | 1017.4 hPa | 0 mm | - | 313 W/m² | - |
| 1777988378 | 25.56° C | 57% | 1017.6 hPa | 0 mm | - | 306 W/m² | - |
| 1777988076 | 25.56° C | 57% | 1017.6 hPa | 0 mm | - | 283 W/m² | - |
| 1777987771 | 25.56° C | 59% | 1017.6 hPa | 0 mm | - | 281 W/m² | - |
| 1777987468 | 25° C | 60% | 1017.5 hPa | 0 mm | - | 269 W/m² | - |
| 1777987166 | 25° C | 60% | 1017.2 hPa | 0 mm | - | 216 W/m² | - |
| 1777986863 | 24.44° C | 63% | 1017.4 hPa | 0 mm | - | 243 W/m² | - |
| 1777986561 | 24.44° C | 63% | 1017.4 hPa | 0 mm | - | 220 W/m² | - |
| 1777986258 | 24.44° C | 64% | 1017.1 hPa | 0 mm | - | 68 W/m² | - |
| 1777985955 | 24.44° C | 65% | 1017.1 hPa | 0 mm | - | 139 W/m² | - |
| 1777985653 | 23.89° C | 66% | 1017.2 hPa | 0 mm | - | 194 W/m² | - |
| 1777985349 | 23.89° C | 65% | 1017.1 hPa | 0 mm | - | 180 W/m² | - |
* Rain latest hour (hover to see other rain measurements)
** Current wind speed in m/s (hover to see current wind gust speed)